Dansville, NY

6:49 PM EDT on May 26, 2018 (GMT -0400)
Dansville Municipal

Weather History for KDSV - November, 2012

Change the Weather History Date:

Thursday, November 22, 2012

  Actual Average Record
Temperature  
Mean Temperature 48 °F -  
Max Temperature 63 °F 42 °F 71 °F (1953)
Min Temperature 32 °F 28 °F 10 °F (1987)
Degree Days  
Heating Degree Days 18    
Moisture  
Dew Point 30 °F    
Average Humidity 64    
Maximum Humidity 82    
Minimum Humidity 33    
Precipitation  
Precipitation 0.00 in - - ()
Sea Level Pressure  
Sea Level Pressure 30.18 in    
Wind  
Wind Speed 8 mph (SSE)    
Max Wind Speed 15 mph    
Max Gust Speed -    
Visibility 10 miles    
Events      
Averages and records for this station are not official NWS values.
T = Trace of Precipitation, MM = Missing Value Source: NWS Daily Summary

Daily Weather History Graph

Daily Weather History Graph

Search for Another Location

Airport or City:

Astronomy

Nov. 22, 2012 Rise Set
Actual Time 7:11 AM EST 4:42 PM EST
Civil Twilight 6:40 AM EST 5:13 PM EST
Nautical Twilight 6:05 AM EST 5:48 PM EST
Astronomical Twilight 5:32 AM EST 6:21 PM EST
Moon 1:33 PM EST (11/22) 1:22 AM EST (11/22)
Length of Visible Light 10h 33m
Length of Day
9h 31m
Waxing Gibbous, 71% of the Moon is Illuminated
Nov 22
Waxing Gibbous
Nov 28
Full
Dec 6
Last Quarter
Dec 13
New
Dec 20
First Quarter

Hourly Weather History & Observations

Time (EST) Temp. Windchill Dew Point Humidity Pressure Visibility Wind Dir Wind Speed Gust Speed Precip Events Conditions
12:54 AM 32.0 °F 25.6 °F 27.0 °F 82% 30.26 in 10.0 mi ESE 6.9 mph - N/A   Clear
1:54 AM 32.0 °F 25.6 °F 26.1 °F 79% 30.26 in 10.0 mi SE 6.9 mph - N/A   Clear
2:54 AM 32.0 °F 23.6 °F 27.0 °F 82% 30.26 in 10.0 mi ESE 10.4 mph - N/A   Clear
3:54 AM 33.1 °F 25.5 °F 26.1 °F 75% 30.26 in 10.0 mi SE 9.2 mph - N/A   Clear
4:54 AM 33.1 °F 24.4 °F 26.1 °F 75% 30.26 in 10.0 mi SE 11.5 mph - N/A   Clear
5:54 AM 35.1 °F 25.5 °F 27.0 °F 72% 30.26 in 10.0 mi SE 15.0 mph - N/A   Clear
6:54 AM 32.0 °F 22.5 °F 26.1 °F 79% 30.26 in 10.0 mi SE 12.7 mph - N/A   Clear
7:54 AM 34.0 °F 24.2 °F 26.1 °F 73% 30.27 in 10.0 mi SSE 15.0 mph - N/A   Clear
8:54 AM 37.9 °F 30.5 °F 28.0 °F 68% 30.26 in 10.0 mi SE 11.5 mph - N/A   Clear
9:54 AM 44.1 °F 38.1 °F 30.0 °F 58% 30.24 in 10.0 mi SE 11.5 mph - N/A   Clear
10:54 AM 52.0 °F - 30.9 °F 45% 30.22 in 10.0 mi SE 8.1 mph - N/A   Clear
11:54 AM 60.1 °F - 30.9 °F 33% 30.19 in 10.0 mi SE 6.9 mph - N/A   Clear
12:54 PM 62.1 °F - 33.1 °F 34% 30.17 in 10.0 mi Variable 4.6 mph - N/A   Clear
1:54 PM 63.0 °F - 34.0 °F 34% 30.14 in 10.0 mi Calm Calm - N/A   Clear
2:54 PM 63.0 °F - 34.0 °F 34% 30.13 in 10.0 mi WSW 4.6 mph - N/A   Clear
3:54 PM 61.0 °F - 34.0 °F 36% 30.13 in 10.0 mi South 3.5 mph - N/A   Clear
4:54 PM 50.0 °F - 36.0 °F 59% 30.12 in 10.0 mi SSE 4.6 mph - N/A   Clear
5:54 PM 43.0 °F 41.3 °F 35.1 °F 74% 30.12 in 10.0 mi South 3.5 mph - N/A   Clear
6:54 PM 39.9 °F - 33.1 °F 77% 30.12 in 10.0 mi Calm Calm - N/A   Clear
7:54 PM 39.0 °F 34.8 °F 33.1 °F 79% 30.11 in 10.0 mi South 5.8 mph - N/A   Clear
8:54 PM 39.9 °F 35.1 °F 32.0 °F 73% 30.09 in 10.0 mi SSE 6.9 mph - N/A   Clear
9:54 PM 39.0 °F 33.4 °F 30.9 °F 73% 30.06 in 10.0 mi South 8.1 mph - N/A   Clear
10:54 PM 37.0 °F 31.0 °F 30.0 °F 76% 30.04 in 10.0 mi SSE 8.1 mph - N/A   Clear
11:54 PM 36.0 °F 29.6 °F 28.9 °F 76% 30.03 in 10.0 mi SSE 8.1 mph - N/A   Clear